[[{"header":{"parameterUnit":"m.s-1","parameterCategory":2,"la1":30.2992,"la2":30.254,"lo1":-89.0895,"lo2":-89.0443,"dy":0.0025,"dx":0.0025,"nx":19,"ny":19,"refTime":"2026-04-29T21:00:00:Z","depth":"0","parameterNumber":2,"parameterNumberName":"U-component_of_CURRENTS"},"data":[0,0,0,-0.2034,-0.2036,-0.211,-0.211,-0.2208,-0.2209,0,0,0,0,0,0,0,0,0,0,0,-0.1993,-0.1993,-0.2034,-0.2036,-0.211,-0.211,-0.2208,-0.2209,0,0,0,0,0,0,0,0,0,0,0,-0.1993,-0.1993,-0.1993,-0.2036,-0.211,-0.211,-0.2207,-0.215,0,0,0,0,0,0,0,0,0,0,-0.2078,-0.202,-0.1993,-0.1993,-0.2036,-0.211,-0.2111,-0.2148,-0.2154,-0.2175,0,-0.2176,0,-0.2202,-0.2215,-0.2216,0,0,0,-0.2035,-0.2014,-0.2057,-0.1993,-0.2037,-0.211,-0.2076,-0.2151,-0.2158,-0.2183,-0.2178,-0.2182,-0.2204,-0.2216,-0.2216,-0.2295,-0.2295,0,0,-0.2031,-0.1988,-0.2052,-0.2061,-0.2044,-0.2074,-0.2079,-0.2155,-0.2144,-0.2178,-0.2184,-0.2206,-0.2216,-0.2217,-0.2295,-0.2295,0,0,0,-0.202,-0.1985,-0.2026,-0.2057,-0.2075,-0.2076,-0.2082,-0.214,-0.216,-0.2186,-0.2207,-0.2217,-0.2218,-0.2294,-0.2295,-0.2306,0,0,0,-0.2017,-0.198,-0.2023,-0.1997,-0.2073,-0.2104,-0.2064,-0.2154,-0.2164,-0.2206,-0.2217,-0.2219,-0.2294,-0.2295,-0.2305,-0.2362,0,0,0,-0.1991,-0.1977,-0.1986,-0.1995,-0.2032,-0.2103,-0.2126,-0.2156,-0.2177,-0.2216,-0.2219,-0.2294,-0.2295,-0.2305,-0.236,-0.2435,0,0,0,-0.1946,-0.1906,-0.1984,-0.1963,-0.2031,-0.2089,-0.2126,-0.2154,-0.218,-0.2218,-0.2294,-0.2295,-0.2304,-0.2358,-0.2432,-0.2299,-0.23,0,0,-0.1865,-0.1894,-0.189,-0.1963,-0.1999,-0.2079,-0.2135,-0.2177,-0.2196,-0.2269,-0.2271,-0.2305,-0.2359,-0.2434,-0.2315,-0.2316,0,0,0,-0.1847,-0.1835,-0.1863,-0.1907,-0.1992,-0.2112,-0.2155,-0.2197,-0.2253,-0.2216,-0.2308,-0.2343,-0.2389,-0.2303,-0.2304,-0.2154,-0.2296,-0.2296,-0.2296,-0.1663,-0.175,-0.1763,-0.1883,-0.1958,-0.2116,-0.2211,-0.2283,-0.2264,-0.2287,-0.2351,-0.2422,-0.2325,-0.2325,-0.2171,-0.2323,-0.2323,-0.2323,-0.2323,-0.1567,-0.1601,-0.173,-0.1769,-0.1955,-0.2039,-0.2268,-0.2306,-0.2436,-0.2382,-0.2425,-0.2318,-0.2327,-0.2162,-0.2324,-0.2324,-0.2324,-0.2324,-0.2324,-0.1488,-0.1521,-0.1552,-0.1668,-0.1828,-0.2033,-0.2234,-0.2383,-0.2463,-0.253,-0.2443,-0.244,-0.2303,-0.2529,-0.2529,-0.253,-0.253,-0.2531,-0.2531,-0.1407,-0.145,-0.1473,-0.1594,-0.1698,-0.1904,-0.2223,-0.235,-0.2475,-0.2493,-0.2491,-0.2293,-0.2486,-0.2486,-0.254,-0.2538,-0.2537,-0.2536,-0.2535,-0.1338,-0.1351,-0.1392,-0.1456,-0.1678,-0.1773,-0.2079,-0.2263,-0.243,-0.2448,-0.2263,-0.248,-0.2486,-0.2482,-0.2482,-0.2533,-0.2533,-0.2533,-0.2533,-0.1287,-0.1298,-0.1353,-0.1453,-0.1602,-0.1741,-0.1764,-0.187,-0.2024,-0.2018,-0.218,-0.2038,-0.2045,-0.2019,-0.2025,-0.2014,-0.1945,-0.1944,-0.1943,-0.1253,-0.1277,-0.1303,-0.1392,-0.1563,-0.1616,-0.1483,-0.144,-0.1676,-0.191,-0.2006,-0.2031,-0.1813,-0.1836,-0.1784,-0.1805,-0.1784,0,0]},{"header":{"parameterUnit":"m.s-1","parameterCategory":2,"la1":30.2992,"la2":30.254,"lo1":-89.0895,"lo2":-89.0443,"dy":0.0025,"dx":0.0025,"nx":19,"ny":19,"refTime":"2026-04-29T21:00:00:Z","depth":"0","parameterNumber":3,"parameterNumberName":"V-component_of_CURRENTS"},"data":[0,0,0,-0.0313,-0.0311,-0.0212,-0.0212,-0.0064,-0.0063,0,0,0,0,0,0,0,0,0,0,0,-0.0343,-0.0343,-0.0313,-0.0311,-0.0212,-0.0212,-0.0064,-0.0063,0,0,0,0,0,0,0,0,0,0,0,-0.0343,-0.0343,-0.0343,-0.0311,-0.0213,-0.0212,-0.0064,-0.0139,0,0,0,0,0,0,0,0,0,0,-0.0235,-0.0281,-0.0343,-0.0343,-0.0311,-0.0213,-0.0211,-0.0142,-0.0134,-0.011,0,-0.0107,0,-0.0093,-0.0055,-0.0054,0,0,0,-0.0288,-0.0288,-0.026,-0.0343,-0.031,-0.0213,-0.025,-0.0138,-0.0128,-0.0099,-0.0105,-0.0099,-0.009,-0.0054,-0.0053,-0.0058,-0.0059,0,0,-0.0294,-0.0321,-0.0267,-0.0255,-0.0299,-0.0254,-0.0248,-0.0132,-0.0129,-0.0104,-0.0096,-0.0088,-0.0053,-0.0052,-0.0057,-0.0058,0,0,0,-0.0325,-0.0325,-0.0299,-0.0261,-0.0251,-0.0252,-0.0244,-0.0134,-0.0126,-0.0094,-0.0086,-0.0052,-0.0051,-0.0056,-0.0057,-0.0192,0,0,0,-0.0327,-0.0344,-0.0302,-0.0316,-0.0254,-0.0197,-0.0249,-0.0133,-0.012,-0.0087,-0.0052,-0.005,-0.0055,-0.0057,-0.0186,-0.0263,0,0,0,-0.0345,-0.0346,-0.0339,-0.0318,-0.0286,-0.0198,-0.0182,-0.013,-0.0116,-0.0054,-0.0049,-0.0054,-0.0056,-0.018,-0.0253,-0.0302,0,0,0,-0.0368,-0.0372,-0.034,-0.0343,-0.0287,-0.0275,-0.0182,-0.0149,-0.0105,-0.0052,-0.0055,-0.0057,-0.0179,-0.0247,-0.0296,-0.0189,-0.0207,0,0,-0.0387,-0.0375,-0.0377,-0.0347,-0.037,-0.0286,-0.032,-0.0215,-0.0134,-0.0084,-0.0084,-0.0188,-0.0252,-0.0301,-0.0323,-0.0336,0,0,0,-0.0392,-0.04,-0.0401,-0.0403,-0.0382,-0.0411,-0.0311,-0.0277,-0.0228,-0.0123,-0.0197,-0.0234,-0.026,-0.0184,-0.0195,0.0083,-0.0068,-0.0068,-0.0068,-0.0468,-0.0452,-0.0486,-0.0484,-0.0496,-0.0483,-0.049,-0.0432,-0.0321,-0.0332,-0.035,-0.0491,-0.0413,-0.042,-0.0137,-0.0347,-0.0347,-0.0348,-0.0348,-0.0525,-0.0546,-0.0567,-0.0589,-0.0632,-0.0661,-0.066,-0.0606,-0.0592,-0.0488,-0.0504,-0.0338,-0.044,-0.0133,-0.0357,-0.0355,-0.0354,-0.0353,-0.0353,-0.0576,-0.0589,-0.0598,-0.0666,-0.0766,-0.0794,-0.0894,-0.0839,-0.0729,-0.0758,-0.0611,-0.0606,-0.0326,-0.0739,-0.074,-0.074,-0.0741,-0.0741,-0.0742,-0.0618,-0.0635,-0.07,-0.0765,-0.0858,-0.0966,-0.1022,-0.1017,-0.0895,-0.0766,-0.0763,-0.0338,-0.061,-0.0584,-0.0751,-0.0749,-0.0748,-0.0747,-0.0747,-0.0656,-0.0671,-0.0784,-0.087,-0.1074,-0.1173,-0.1208,-0.1109,-0.1064,-0.0969,-0.0406,-0.0747,-0.0688,-0.0675,-0.0649,-0.0824,-0.0824,-0.0824,-0.0824,-0.0693,-0.0703,-0.09,-0.1083,-0.1259,-0.1304,-0.1264,-0.1057,-0.0624,-0.0324,-0.0284,-0.0124,-0.0133,-0.0032,-0.0033,0.001,0.0006,0.0008,0.0009,-0.0731,-0.0796,-0.0966,-0.1147,-0.1366,-0.139,-0.1229,-0.0849,-0.0197,0.0069,0.0075,0.0039,0.0301,0.0264,0.045,0.0426,0.0505,0,0]}],[{"header":{"parameterUnit":"m.s-1","parameterCategory":2,"la1":30.2992,"la2":30.254,"lo1":-89.0895,"lo2":-89.0443,"dy":0.0025,"dx":0.0025,"nx":19,"ny":19,"refTime":"2026-04-29T21:00:00:Z","depth":"2","parameterNumber":2,"parameterNumberName":"U-component_of_CURRENTS"},"data":[0,0,0,-0.1873,-0.1875,-0.1975,-0.1975,-0.2052,-0.2052,0,0,0,0,0,0,0,0,0,0,0,-0.1821,-0.1822,-0.1873,-0.1875,-0.1975,-0.1975,-0.2052,-0.2052,0,0,0,0,0,0,0,0,0,0,0,-0.1821,-0.1822,-0.1822,-0.1876,-0.1975,-0.1975,-0.2052,-0.199,0,0,0,0,0,0,0,0,0,0,-0.1899,-0.1848,-0.1822,-0.1822,-0.1876,-0.1975,-0.1975,-0.1987,-0.1993,-0.1992,0,-0.1995,0,-0.2031,-0.2056,-0.2056,0,0,0,-0.1877,-0.1843,-0.1882,-0.1822,-0.1877,-0.1974,-0.193,-0.1991,-0.1998,-0.2,-0.1997,-0.2001,-0.2033,-0.2057,-0.2057,-0.2036,-0.2035,0,0,-0.1872,-0.1831,-0.1877,-0.1886,-0.1887,-0.1927,-0.1933,-0.1996,-0.1988,-0.1997,-0.2003,-0.2034,-0.2057,-0.2057,-0.2037,-0.2036,0,0,0,-0.1855,-0.1827,-0.1866,-0.1882,-0.1908,-0.193,-0.1937,-0.1985,-0.2001,-0.2005,-0.2035,-0.2057,-0.2058,-0.2037,-0.2036,-0.2068,0,0,0,-0.1851,-0.1818,-0.1863,-0.1839,-0.1906,-0.1953,-0.1924,-0.1996,-0.2005,-0.2035,-0.2057,-0.2059,-0.2038,-0.2037,-0.2069,-0.2175,0,0,0,-0.182,-0.1815,-0.1824,-0.1836,-0.1883,-0.1953,-0.1973,-0.1999,-0.2023,-0.2056,-0.2059,-0.2039,-0.2037,-0.2069,-0.2172,-0.2261,0,0,0,-0.1779,-0.1748,-0.1822,-0.1807,-0.1881,-0.1921,-0.1973,-0.2006,-0.2029,-0.2058,-0.2038,-0.2036,-0.2069,-0.217,-0.2259,-0.2039,-0.2035,0,0,-0.1713,-0.1739,-0.1734,-0.1804,-0.1826,-0.1908,-0.1927,-0.1985,-0.2002,-0.2016,-0.2017,-0.2068,-0.2172,-0.2261,-0.1949,-0.1948,0,0,0,-0.1697,-0.1688,-0.1709,-0.1746,-0.181,-0.1906,-0.1932,-0.1974,-0.2014,-0.201,-0.2027,-0.2093,-0.2149,-0.2007,-0.2005,-0.2029,-0.2029,-0.2029,-0.203,-0.154,-0.1609,-0.1613,-0.1695,-0.1741,-0.1879,-0.1965,-0.202,-0.1981,-0.1996,-0.2084,-0.2138,-0.1978,-0.1976,-0.1995,-0.1995,-0.1995,-0.1995,-0.1995,-0.1458,-0.1481,-0.1571,-0.16,-0.1738,-0.1782,-0.1968,-0.2015,-0.2148,-0.2083,-0.2132,-0.2003,-0.1976,-0.1997,-0.1996,-0.1996,-0.1996,-0.1996,-0.1996,-0.1389,-0.1412,-0.1439,-0.1516,-0.1642,-0.1781,-0.1972,-0.2129,-0.2206,-0.23,-0.2149,-0.2145,-0.225,-0.2297,-0.2298,-0.2298,-0.2299,-0.23,-0.23,-0.1318,-0.135,-0.1372,-0.1459,-0.1534,-0.1704,-0.2017,-0.2135,-0.2237,-0.2235,-0.2231,-0.2243,-0.2233,-0.2268,-0.2313,-0.231,-0.2309,-0.2308,-0.2307,-0.1259,-0.1272,-0.1305,-0.1358,-0.1532,-0.1609,-0.1886,-0.2022,-0.2199,-0.2185,-0.2189,-0.2188,-0.2191,-0.2186,-0.2218,-0.225,-0.225,-0.225,-0.225,-0.1215,-0.1225,-0.127,-0.1349,-0.1471,-0.1586,-0.1593,-0.1638,-0.181,-0.182,-0.1839,-0.1641,-0.1653,-0.1617,-0.1625,-0.1643,-0.1525,-0.1524,-0.1523,-0.1184,-0.1203,-0.1223,-0.1295,-0.143,-0.1481,-0.1338,-0.1204,-0.1294,-0.1495,-0.1718,-0.22,-0.195,-0.1953,-0.1928,-0.1929,-0.1971,0,0]},{"header":{"parameterUnit":"m.s-1","parameterCategory":2,"la1":30.2992,"la2":30.254,"lo1":-89.0895,"lo2":-89.0443,"dy":0.0025,"dx":0.0025,"nx":19,"ny":19,"refTime":"2026-04-29T21:00:00:Z","depth":"2","parameterNumber":3,"parameterNumberName":"V-component_of_CURRENTS"},"data":[0,0,0,-0.0174,-0.0173,-0.0086,-0.0085,0.009,0.0091,0,0,0,0,0,0,0,0,0,0,0,-0.02,-0.0199,-0.0174,-0.0173,-0.0086,-0.0085,0.0089,0.0091,0,0,0,0,0,0,0,0,0,0,0,-0.02,-0.02,-0.0199,-0.0173,-0.0086,-0.0085,0.0089,0.0013,0,0,0,0,0,0,0,0,0,0,-0.0077,-0.0129,-0.02,-0.0199,-0.0172,-0.0086,-0.0085,0.0009,0.0018,0.0061,0,0.006,0,0.0069,0.0102,0.0103,0,0,0,-0.0149,-0.0137,-0.0107,-0.0199,-0.0172,-0.0086,-0.0118,0.0014,0.0024,0.0072,0.0063,0.0069,0.0072,0.0103,0.0104,0.0175,0.0175,0,0,-0.0154,-0.0182,-0.0115,-0.0102,-0.0165,-0.0121,-0.0116,0.002,0.0021,0.0063,0.0073,0.0075,0.0104,0.0105,0.0176,0.0175,0,0,0,-0.0184,-0.0186,-0.016,-0.0109,-0.0104,-0.0119,-0.0113,0.0015,0.0025,0.0075,0.0077,0.0105,0.0107,0.0176,0.0175,0.0064,0,0,0,-0.0185,-0.0205,-0.0163,-0.0179,-0.0107,-0.0055,-0.012,0.0016,0.0031,0.0076,0.0105,0.0109,0.0177,0.0176,0.0068,-0.0046,0,0,0,-0.0201,-0.0207,-0.02,-0.0181,-0.0154,-0.0058,-0.004,0.0019,0.0032,0.0103,0.0109,0.0177,0.0176,0.0072,-0.0037,-0.0065,0,0,0,-0.0226,-0.0235,-0.0201,-0.0207,-0.0155,-0.012,-0.004,-0.0004,0.0047,0.0106,0.0177,0.0176,0.0073,-0.0031,-0.006,0.0101,0.0092,0,0,-0.0251,-0.0239,-0.024,-0.0208,-0.0209,-0.0129,-0.011,-0.0013,0.0048,0.0143,0.0144,0.0067,-0.0036,-0.0064,0.0041,0.0034,0,0,0,-0.0257,-0.0264,-0.0257,-0.0248,-0.0206,-0.0195,-0.0079,-0.0046,0.0013,0.007,0.0077,0.0014,0.0001,0.011,0.0103,0.0171,0.0171,0.0171,0.0171,-0.0343,-0.0312,-0.0328,-0.0288,-0.0266,-0.0219,-0.0199,-0.013,-0.0028,-0.0036,-0.0066,-0.0161,-0.0045,-0.0048,-0.0018,-0.0019,-0.0019,-0.002,-0.002,-0.04,-0.0405,-0.0384,-0.0387,-0.037,-0.0352,-0.0289,-0.0247,-0.0229,-0.0158,-0.0162,-0.0002,-0.0061,-0.0029,-0.0027,-0.0026,-0.0025,-0.0024,-0.0024,-0.0453,-0.0451,-0.0452,-0.0467,-0.0515,-0.0471,-0.0518,-0.0473,-0.0369,-0.0403,-0.0234,-0.0228,-0.0247,-0.0386,-0.0386,-0.0387,-0.0387,-0.0388,-0.0388,-0.0499,-0.0499,-0.0549,-0.0569,-0.0622,-0.0671,-0.0691,-0.0646,-0.0511,-0.039,-0.0386,-0.0285,-0.0273,-0.0268,-0.0398,-0.0396,-0.0395,-0.0394,-0.0393,-0.0536,-0.0551,-0.0639,-0.0699,-0.082,-0.0871,-0.0849,-0.0674,-0.0624,-0.05,-0.0331,-0.0329,-0.0281,-0.0271,-0.0265,-0.0388,-0.0388,-0.0388,-0.0388,-0.0575,-0.0582,-0.0744,-0.0874,-0.0981,-0.098,-0.0885,-0.0637,-0.0402,-0.0242,-0.0249,-0.0113,-0.0115,-0.0051,-0.0047,-0.0032,-0.0096,-0.0096,-0.0095,-0.0609,-0.0663,-0.0806,-0.0935,-0.1067,-0.1049,-0.0874,-0.0514,-0.0132,-0.0091,-0.0269,-0.0355,-0.0164,-0.0165,-0.0067,-0.006,-0.0037,0,0]}],[{"header":{"parameterUnit":"m.s-1","parameterCategory":2,"la1":30.2992,"la2":30.254,"lo1":-89.0895,"lo2":-89.0443,"dy":0.0025,"dx":0.0025,"nx":19,"ny":19,"refTime":"2026-04-29T21:00:00:Z","depth":"4","parameterNumber":2,"parameterNumberName":"U-component_of_CURRENTS"},"data":[0,0,0,-0.1084,-0.1086,-0.1147,-0.1148,-0.1092,-0.1091,0,0,0,0,0,0,0,0,0,0,0,-0.1082,-0.1083,-0.1084,-0.1086,-0.1147,-0.1148,-0.1092,-0.1091,0,0,0,0,0,0,0,0,0,0,0,-0.1082,-0.1083,-0.1084,-0.1086,-0.1147,-0.1148,-0.1092,-0.1079,0,0,0,0,0,0,0,0,0,0,-0.1035,-0.1055,-0.1083,-0.1084,-0.1086,-0.1147,-0.1148,-0.1079,-0.1079,-0.1025,0,-0.1058,0,-0.1061,-0.1084,-0.1084,0,0,0,-0.1085,-0.1055,-0.1067,-0.1084,-0.1087,-0.1147,-0.1119,-0.108,-0.108,-0.1024,-0.1057,-0.1055,-0.106,-0.1083,-0.1083,-0.0941,-0.0941,0,0,-0.1081,-0.1088,-0.1068,-0.1068,-0.1129,-0.1117,-0.1121,-0.1082,-0.1091,-0.1057,-0.1054,-0.1059,-0.1083,-0.1082,-0.0942,-0.0941,0,0,0,-0.1072,-0.1086,-0.1102,-0.107,-0.1086,-0.1119,-0.1124,-0.1094,-0.1099,-0.1054,-0.1059,-0.1082,-0.1081,-0.0943,-0.0942,-0.0956,0,0,0,-0.107,-0.108,-0.1101,-0.1105,-0.1088,-0.1108,-0.1136,-0.1103,-0.1098,-0.1059,-0.1082,-0.108,-0.0944,-0.0942,-0.0957,-0.0973,0,0,0,-0.1075,-0.108,-0.1095,-0.1105,-0.113,-0.111,-0.1114,-0.1103,-0.1099,-0.1083,-0.108,-0.0944,-0.0943,-0.0959,-0.0974,-0.1035,0,0,0,-0.1066,-0.109,-0.1097,-0.1129,-0.1129,-0.1123,-0.1115,-0.1124,-0.1116,-0.1081,-0.0944,-0.0942,-0.0959,-0.0975,-0.1035,-0.0984,0,0,0,-0.1081,-0.1092,-0.111,-0.1116,-0.1104,-0.1113,-0.1074,-0.1077,-0.1056,-0.0949,-0.0947,-0.0957,-0.0975,-0.1035,-0.0871,0,0,0,0,-0.1103,-0.1114,-0.1112,-0.1121,-0.1113,-0.1081,-0.1072,-0.104,-0.0986,-0.1043,-0.0914,-0.0924,-0.0963,-0.0928,-0.0933,-0.0933,-0.0933,-0.0933,-0.0933,-0.1074,-0.1092,-0.1096,-0.11,-0.1092,-0.1051,-0.1019,-0.0962,-0.0948,-0.0918,-0.0904,-0.0914,-0.0869,-0.0861,-0.0861,-0.0861,-0.0861,-0.0861,-0.0861,-0.1062,-0.1064,-0.108,-0.1097,-0.1062,-0.1029,-0.0945,-0.0933,-0.0877,-0.0852,-0.0891,-0.0902,-0.0861,-0.0861,-0.0861,-0.0861,-0.0861,-0.0861,-0.0861,-0.1019,-0.1024,-0.1061,-0.1078,-0.1049,-0.1012,-0.0968,-0.0921,-0.0908,-0.0913,-0.0934,-0.0938,-0.0979,-0.0969,-0.0969,-0.0969,-0.0969,-0.097,-0.097,-0.0959,-0.0991,-0.1017,-0.1042,-0.1038,-0.1021,-0.0985,-0.0963,-0.0964,-0.0944,-0.0954,-0.0951,-0.0948,-0.0984,-0.0975,-0.0974,-0.0973,-0.0973,-0.0972,-0.092,-0.0946,-0.0963,-0.0981,-0.0981,-0.096,-0.0977,-0.0972,-0.0986,-0.0979,-0.0964,-0.0963,-0.097,-0.0967,-0.1005,-0.1002,-0.1001,-0.1001,0,-0.0882,-0.0901,-0.0907,-0.0901,-0.0893,-0.0902,-0.092,-0.0927,-0.0935,-0.0942,-0.0964,-0.0946,-0.0945,-0.095,-0.0946,-0.0987,0,0,0,-0.0859,-0.0859,-0.0839,-0.0848,-0.0831,-0.0857,-0.0912,-0.0909,-0.0966,-0.0925,-0.0985,-0.0989,-0.0913,-0.0989,-0.0999,-0.0995,-0.1055,0,0]},{"header":{"parameterUnit":"m.s-1","parameterCategory":2,"la1":30.2992,"la2":30.254,"lo1":-89.0895,"lo2":-89.0443,"dy":0.0025,"dx":0.0025,"nx":19,"ny":19,"refTime":"2026-04-29T21:00:00:Z","depth":"4","parameterNumber":3,"parameterNumberName":"V-component_of_CURRENTS"},"data":[0,0,0,0.0012,0.0012,0.0085,0.0085,0.0259,0.0261,0,0,0,0,0,0,0,0,0,0,0,-0.0012,-0.0012,0.0012,0.0013,0.0085,0.0085,0.0259,0.0261,0,0,0,0,0,0,0,0,0,0,0,-0.0012,-0.0012,-0.0011,0.0013,0.0085,0.0085,0.0258,0.0188,0,0,0,0,0,0,0,0,0,0,0.011,0.0057,-0.0012,-0.0011,0.0013,0.0084,0.0085,0.0184,0.0193,0.0243,0,0.0241,0,0.0248,0.0272,0.0273,0,0,0,0.0032,0.005,0.0078,-0.0011,0.0013,0.0084,0.0058,0.0189,0.0198,0.0255,0.0243,0.0249,0.0251,0.0273,0.0274,0.0457,0.0458,0,0,0.0028,0.0,0.0071,0.0084,0.0017,0.0055,0.006,0.0194,0.0194,0.0244,0.0253,0.0254,0.0275,0.0276,0.0457,0.0457,0,0,0,0.0004,-0.0003,0.0021,0.0077,0.008,0.0057,0.0062,0.0188,0.0198,0.0255,0.0256,0.0275,0.0278,0.0456,0.0457,0.0465,0,0,0,0.0002,-0.0018,0.0019,0.0003,0.0076,0.012,0.0053,0.0189,0.0204,0.0255,0.0276,0.0279,0.0455,0.0456,0.0463,0.0437,0,0,0,-0.0012,-0.002,-0.0015,0.0002,0.0025,0.0118,0.0135,0.0192,0.0204,0.0273,0.028,0.0455,0.0456,0.0462,0.0435,0.0475,0,0,0,-0.0037,-0.0052,-0.0016,-0.0023,0.0024,0.01,0.0134,0.019,0.0245,0.0276,0.0455,0.0457,0.0461,0.0435,0.0474,0.0308,0,0,0,-0.0071,-0.0058,-0.0058,-0.0023,0.002,0.0092,0.019,0.0263,0.0294,0.0419,0.0422,0.0464,0.0435,0.0475,0.0408,0,0,0,0,-0.0077,-0.0083,-0.0061,-0.0029,0.0048,0.0156,0.0243,0.0303,0.0402,0.033,0.0496,0.0477,0.0502,0.0403,0.0465,0.0465,0.0464,0.0464,0.0464,-0.0165,-0.0114,-0.0096,-0.0012,0.0061,0.0214,0.0304,0.0409,0.0446,0.049,0.0509,0.0573,0.0472,0.0553,0.0553,0.0554,0.0554,0.0554,0.0554,-0.0211,-0.0186,-0.0106,-0.0078,0.0069,0.0176,0.0382,0.0435,0.0568,0.0565,0.059,0.0449,0.0555,0.0555,0.0555,0.0555,0.0554,0.0554,0.0554,-0.025,-0.0224,-0.0217,-0.0145,-0.002,0.0151,0.0275,0.0422,0.0537,0.0581,0.0497,0.0585,0.0556,0.0604,0.0604,0.0604,0.0605,0.0605,0.0605,-0.0282,-0.0261,-0.0269,-0.0197,-0.014,-0.0018,0.0211,0.0301,0.0462,0.0475,0.058,0.059,0.0588,0.056,0.0606,0.0606,0.0606,0.0605,0.0605,-0.0297,-0.0317,-0.0322,-0.0308,-0.0192,-0.0106,0.007,0.0226,0.0321,0.0383,0.0439,0.0447,0.0427,0.0429,0.0394,0.0392,0.039,0.0388,0,-0.0321,-0.0327,-0.0336,-0.0305,-0.0244,-0.0124,-0.0057,0.0073,0.0247,0.022,0.0364,0.0423,0.0429,0.0402,0.0401,0.0357,0,0,0,-0.0332,-0.0339,-0.0336,-0.0314,-0.0242,-0.0124,-0.0026,0.0003,0.0194,0.0236,0.0339,0.0352,0.047,0.061,0.0598,0.0595,0.055,0,0]}]]